Location: Seven Kings
(51.5667°N, 0.1000°E)
Time: 02:42:51
(UTC+00:00)

Okean-O - Pass Details

Date: 29 October 2020
Orbit: 638 x 641 km, 98.2° (Epoch: 24 November)

Event Time Altitude Azimuth Distance (km) Brightness Sun altitude
Rises 18:00:11 0° 154° (SSE) 2,937 5.8 -13.4°
Reaches altitude 10° 18:02:24 10° 151° (SSE) 2,032 5.0 -13.7°
Maximum altitude 18:06:46 64° 71° (ENE) 716 2.6 -14.4°
Drops below altitude 10° 18:11:11 10° 351° (N) 2,046 5.3 -15.1°
Sets 18:13:24 0° 348° (NNW) 2,960 6.2 -15.4°
